Location: Cahas Mountain Overlook
(37.0833°N, 80.1000°W)
Time: 07:10:20
(UTC-04:00)

Explorer 7 - Pass Details

Date: 15 February 2026
Orbit: 430 x 540 km, 50.2° (Epoch: 14 March)

Event Time Altitude Azimuth Distance (km) Brightness Sun altitude
Rises 17:23:26 0° 275° (W) 2,452 11.5 6.2°
Reaches altitude 10° 17:26:03 10° 295° (WNW) 1,604 10.0 5.7°
Maximum altitude 17:28:36 18° 340° (NNW) 1,222 8.7 5.2°
Drops below altitude 10° 17:31:13 10° 25° (NNE) 1,655 8.9 4.7°
Sets 17:33:59 0° 45° (NE) 2,564 9.7 4.2°
